| time (UTC) | temp F | wind direction | speed knots | gust knots | rain 1hr in | rain 24hr in | rain mn in | humidity % | barometer mb |
| 20260507174929 | 68 | 210 | 2.6 | 1.7 | 0.00 | 0.00 | 0.00 | ||
| 20260507173430 | 66 | 245 | 0.0 | 0.0 | 0.00 | 0.00 | 0.00 | ||
| 20260507171930 | 66 | 232 | 0.9 | 0.0 | 0.00 | 0.00 | 0.00 | ||
| 20260507170431 | 65 | 295 | 3.5 | 0.9 | 0.00 | 0.00 | 0.00 | ||
| 20260507164932 | 66 | 222 | 0.0 | 0.0 | 0.00 | 0.00 | 0.00 | ||
| 20260507163433 | 67 | 188 | 1.7 | 2.6 | 0.00 | 0.00 | 0.00 | ||
| 20260507161934 | 66 | 153 | 0.0 | 0.0 | 0.00 | 0.00 | 0.00 | ||
| 20260507160435 | 65 | 107 | 0.0 | 0.0 | 0.00 | 0.00 | 0.00 | ||
| 20260507154936 | 65 | 6 | 0.0 | 0.0 | 0.00 | 0.00 | 0.00 | ||
| 20260507151938 | 63 | 75 | 0.0 | 0.0 | 0.00 | 0.00 | 0.00 | ||
| 20260507150439 | 62 | 101 | 0.0 | 0.0 | 0.00 | 0.00 | 0.00 | ||
| 20260507144941 | 59 | 72 | 0.9 | 1.7 | 0.00 | 0.00 | 0.00 | ||
| 20260507143442 | 56 | 108 | 1.7 | 1.7 | 0.00 | 0.00 | 0.00 | ||
| 20260507141943 | 54 | 68 | 3.5 | 1.7 | 0.00 | 0.00 | 0.00 | ||
| 20260507140445 | 53 | 60 | 2.6 | 1.7 | 0.00 | 0.00 | 0.00 | ||
| 20260507134946 | 51 | 101 | 2.6 | 3.5 | 0.00 | 0.00 | 0.00 | ||
| 20260507133448 | 49 | 103 | 3.5 | 2.6 | 0.00 | 0.00 | 0.00 | ||
| 20260507131949 | 48 | 139 | 2.6 | 0.9 | 0.00 | 0.00 | 0.00 | ||
| 20260507130450 | 46 | 114 | 3.5 | 5.2 | 0.00 | 0.00 | 0.00 | ||
| 20260507124955 | 44 | 101 | 3.5 | 4.3 | 0.00 | 0.00 | 0.00 | ||
| 20260507123454 | 41 | 100 | 3.5 | 2.6 | 0.00 | 0.00 | 0.00 | ||
| 20260507120456 | 38 | 113 | 4.3 | 1.7 | 0.00 | 0.00 | 0.00 | ||
| 20260507114958 | 39 | 128 | 3.5 | 3.5 | 0.00 | 0.00 | 0.00 | ||
| 20260507112001 | 39 | 108 | 3.5 | 4.3 | 0.00 | 0.00 | 0.00 | ||
| 20260507110503 | 38 | 125 | 1.7 | 1.7 | 0.00 | 0.00 | 0.00 | ||
| 20260507105004 | 39 | 128 | 1.7 | 1.7 | 0.00 | 0.00 | 0.00 | ||
| 20260507103506 | 39 | 59 | 4.3 | 5.2 | 0.00 | 0.00 | 0.00 | ||
| 20260507102007 | 39 | 118 | 1.7 | 2.6 | 0.00 | 0.00 | 0.00 | ||
| 20260507100509 | 38 | 111 | 3.5 | 3.5 | 0.00 | 0.00 | 0.00 | ||
| 20260507095010 | 38 | 93 | 2.6 | 2.6 | 0.00 | 0.00 | 0.00 | ||
| 20260507093512 | 38 | 118 | 2.6 | 2.6 | 0.00 | 0.00 | 0.00 | ||
| 20260507092013 | 38 | 131 | 3.5 | 2.6 | 0.00 | 0.00 | 0.00 | ||
| 20260507090515 | 39 | 124 | 3.5 | 3.5 | 0.00 | 0.00 | 0.00 | ||
| 20260507085017 | 39 | 111 | 5.2 | 4.3 | 0.00 | 0.00 | 0.00 | ||
| 20260507083519 | 38 | 111 | 4.3 | 2.6 | 0.00 | 0.00 | 0.00 | ||
| 20260507082019 | 39 | 110 | 5.2 | 4.3 | 0.00 | 0.00 | 0.00 | ||
| 20260507075022 | 39 | 86 | 3.5 | 3.5 | 0.00 | 0.00 | 0.00 | ||
| 20260507073523 | 40 | 70 | 3.5 | 2.6 | 0.00 | 0.00 | 0.00 | ||
| 20260507072024 | 40 | 80 | 3.5 | 6.1 | 0.00 | 0.00 | 0.00 | ||
| 20260507070526 | 41 | 136 | 3.5 | 1.7 | 0.00 | 0.00 | 0.00 | ||
| 20260507065027 | 40 | 118 | 2.6 | 2.6 | 0.00 | 0.00 | 0.00 | ||
| 20260507063528 | 41 | 82 | 3.5 | 3.5 | 0.00 | 0.00 | 0.00 | ||
| 20260507062029 | 41 | 86 | 4.3 | 2.6 | 0.00 | 0.00 | 0.00 | ||
| 20260507060530 | 43 | 66 | 7.0 | 6.1 | 0.00 | 0.00 | 0.00 | ||
| 20260507055031 | 43 | 76 | 5.2 | 4.3 | 0.00 | 0.00 | 0.00 | ||
| 20260507053532 | 44 | 108 | 4.3 | 4.3 | 0.00 | 0.00 | 0.00 | ||
| 20260507043537 | 48 | 68 | 3.5 | 2.6 | 0.00 | 0.00 | 0.00 | ||
| 20260507042038 | 49 | 101 | 1.7 | 1.7 | 0.00 | 0.00 | 0.00 | ||
| 20260507040539 | 51 | 69 | 4.3 | 5.2 | 0.00 | 0.00 | 0.00 | ||
| 20260507035040 | 53 | 118 | 0.0 | 0.0 | 0.00 | 0.00 | 0.00 | ||
| 20260507033541 | 56 | 107 | 0.9 | 3.5 | 0.00 | 0.00 | 0.00 | ||
| 20260507030543 | 59 | 75 | 4.3 | 2.6 | 0.00 | 0.00 | 0.00 | ||
| 20260507025043 | 60 | 136 | 3.5 | 3.5 | 0.00 | 0.00 | 0.00 | ||
| 20260507023544 | 62 | 127 | 3.5 | 5.2 | 0.00 | 0.00 | 0.00 | ||
| 20260507022045 | 62 | 207 | 3.5 | 1.7 | 0.00 | 0.00 | 0.00 | ||
| 20260507020546 | 62 | 259 | 0.0 | 0.0 | 0.00 | 0.00 | 0.00 | ||
| 20260507015046 | 64 | 270 | 1.7 | 2.6 | 0.00 | 0.00 | 0.00 | ||
| 20260507013547 | 64 | 257 | 2.6 | 1.7 | 0.00 | 0.00 | 0.00 | ||
| 20260507012048 | 65 | 259 | 0.9 | 0.9 | 0.00 | 0.00 | 0.00 | ||
| 20260507010548 | 64 | 250 | 2.6 | 1.7 | 0.00 | 0.00 | 0.00 | ||
| 20260507005048 | 65 | 239 | 2.6 | 4.3 | 0.00 | 0.00 | 0.00 | ||
| 20260507002049 | 69 | 211 | 5.2 | 4.3 | 0.00 | 0.00 | 0.00 | ||
| 20260507000549 | 70 | 257 | 5.2 | 7.8 | 0.00 | 0.00 | 0.00 | ||
| 20260506235050 | 71 | 201 | 4.3 | 5.2 | 0.00 | 0.00 | 0.00 | ||
| 20260506233550 | 69 | 276 | 4.3 | 2.6 | 0.00 | 0.00 | 0.00 | ||
| 20260506232050 | 72 | 278 | 4.3 | 2.6 | 0.00 | 0.00 | 0.00 | ||
| 20260506230551 | 73 | 249 | 6.1 | 9.6 | 0.00 | 0.00 | 0.00 | ||
| 20260506225051 | 71 | 262 | 7.8 | 7.0 | 0.00 | 0.00 | 0.00 | ||
| 20260506223552 | 71 | 278 | 2.6 | 8.7 | 0.00 | 0.00 | 0.00 | ||
| 20260506222052 | 71 | 253 | 4.3 | 5.2 | 0.00 | 0.00 | 0.00 | ||
| 20260506215054 | 70 | 212 | 8.7 | 7.0 | 0.00 | 0.00 | 0.00 | ||
| 20260506213554 | 71 | 225 | 4.3 | 5.2 | 0.00 | 0.00 | 0.00 | ||
| 20260506212055 | 68 | 262 | 6.1 | 5.2 | 0.00 | 0.00 | 0.00 | ||
| 20260506210556 | 70 | 245 | 5.2 | 11.3 | 0.00 | 0.00 | 0.00 | ||
| 20260506205056 | 67 | 257 | 2.6 | 2.6 | 0.00 | 0.00 | 0.00 | ||
| 20260506203557 | 68 | 305 | 1.7 | 3.5 | 0.00 | 0.00 | 0.00 | ||
| 20260506202058 | 68 | 238 | 1.7 | 4.3 | 0.00 | 0.00 | 0.00 | ||
| 20260506200558 | 68 | 225 | 5.2 | 7.0 | 0.00 | 0.00 | 0.00 | ||
| 20260506195059 | 66 | 217 | 5.2 | 3.5 | 0.00 | 0.00 | 0.00 | ||
| 20260506192100 | 64 | 281 | 4.3 | 4.3 | 0.00 | 0.00 | 0.00 | ||
| 20260506190601 | 66 | 253 | 1.7 | 6.1 | 0.00 | 0.00 | 0.00 | ||
| 20260506185102 | 63 | 183 | 6.1 | 0.9 | 0.00 | 0.00 | 0.00 | ||
| 20260506183603 | 63 | 238 | 3.5 | 5.2 | 0.00 | 0.00 | 0.00 | ||
| 20260506180604 | 62 | 257 | 5.2 | 2.6 | 0.00 | 0.00 | 0.00 |